Flag for Jamaica Weather past 2 weeks in May Pen, Jamaica

Now
81 °F

Passing clouds.


Feels Like: 85 °F
Forecast: 72 / 88 °F
Wind: 14 mph from Southeast

Location: Kingston / Norman Manley


UV Index: 10 (Very high)

Visibility: N/A


Pressure: 29.95 "Hg

Humidity: 79%

Dew point: 73 °F

Location of May PenLocation

Historic Weather in May Pen

°F

May Pen temperature yesterday

Maximum temperature yesterday: 88 °F (at 1:00 PM)
Minimum temperature yesterday: 75 °F (at 3:00 AM)
Average temperature yesterday: 80 °F

Past Weeks' High & Low Weather Summary

 TemperatureHumidityPressure
High91 °F (Apr 10, 4:00 PM)100% (Apr 16, 6:00 PM)30.07 "Hg (Apr 16, 6:00 PM)
Low32 °F (Apr 16, 6:00 PM)59% (Apr 10, 4:00 PM)29.86 "Hg (Apr 5, 3:00 PM)
Average81 °F77%29.94 "Hg
* Reported Apr 4 7:00 PM — Apr 19 7:00 PM, May Pen, Weather by CustomWeather, © 2014

Note: Actual official high and low records may vary slightly from our data, if they occured in-between our weather recording intervals... More about our weather records

Advertising

Historic Weather Conditions — Data for Previous 24 hours

 ConditionsComfort  
Time TempWeatherWind HumidityBarometerVisibility
7:00 PM
Apr 19
82 °FPassing clouds.18 mph79%29.92 "HgN/A
6:00 PMN/APassing clouds.20 mphN/A29.92 "HgN/A
5:00 PMN/APassing clouds.16 mphN/A29.92 "HgN/A
4:00 PM86 °FScattered clouds.21 mph75%29.89 "HgN/A
3:00 PMN/ABroken clouds.16 mphN/A29.92 "HgN/A
2:00 PMN/ASprinkles.16 mphN/A29.92 "HgN/A
1:00 PM86 °FScattered showers. Broken clouds.22 mph79%29.95 "HgN/A
12:00 PMN/A13 mphN/AN/AN/A
11:00 AM32 °FRain showers. Partly sunny.17 mph100%29.98 "Hg1 mi
10:00 AM84 °FScattered showers. Cloudy.15 mph79%29.98 "HgN/A
9:00 AMN/AScattered clouds.6 mphN/A29.98 "HgN/A
8:00 AM82 °FSprinkles. Scattered clouds.12 mph79%29.98 "HgN/A
7:00 AM81 °FPartly sunny.6 mph84%29.95 "HgN/A
6:00 AM79 °FScattered clouds.6 mph84%29.92 "HgN/A
5:00 AM77 °FPassing clouds.9 mph83%29.92 "HgN/A
4:00 AM79 °FPassing clouds.6 mph79%29.92 "HgN/A
3:00 AM79 °FPassing clouds.3 mph79%29.92 "HgN/A
2:00 AM79 °FPassing clouds.5 mph79%29.92 "HgN/A
1:00 AM81 °FPassing clouds.6 mph84%29.95 "HgN/A
12:00 AM79 °FPassing clouds.7 mph79%29.95 "HgN/A
11:00 PM
Apr 18
81 °FPassing clouds.16 mph79%29.95 "HgN/A
10:00 PM81 °FPassing clouds.17 mph79%29.95 "HgN/A
9:00 PM81 °FPassing clouds.21 mph74%29.95 "HgN/A
8:00 PM82 °FPassing clouds.17 mph70%29.92 "HgN/A
Weather by CustomWeather, © 2014

See weather overview